Location: Newark
(55.7083°N, 13.1992°E)
Time: 14:54:28
(UTC+00:00)

Transit 4A - Pass Details

Date: 21 February 2020
Orbit: 871 x 973 km, 66.8° (Epoch: 08 April)

Event Time Altitude Azimuth Distance (km) Brightness Sun altitude
Exits shadow 01:37:28 31° 26° (NNE) 1,485 9.3 -37.8°
Drops below altitude 10° 01:40:36 10° 42° (NE) 2,531 10.9 -37.5°
Sets 01:43:09 0° 47° (NE) 3,473 11.9 -37.2°
